Cucuta, Colombia

7:13 AM -05 on November 22, 2017 (GMT -0500)
Camilo Daza International

Weather History for SKCC - October, 2012

Change the Weather History Date:

Sunday, October 7, 2012

  Actual Average (SVSA) Record (SVSA)
Temperature  
Mean Temperature 82 °F -  
Max Temperature 93 °F 91 °F 98 °F (2006)
Min Temperature 71 °F 72 °F 69 °F (2008)
Cooling Degree Days 17    
Growing Degree Days 32 (Base 50)    
Moisture  
Dew Point 72 °F    
Average Humidity 71    
Maximum Humidity 89    
Minimum Humidity 46    
Precipitation  
Precipitation 0.00 in 0.18 in - ()
Sea Level Pressure  
Sea Level Pressure 29.88 in    
Wind  
Wind Speed 2 mph ()    
Max Wind Speed 9 mph    
Max Gust Speed -    
Visibility 6.8 miles    
Events Fog , Thunderstorm    
Averages and records for this station are not official NWS values.
T = Trace of Precipitation, MM = Missing Value Source: Averaged Metar Reports

Daily Weather History Graph

Daily Weather History Graph

Search for Another Location

Airport or City:

Trip Planner

Search our weather history database for the weather conditions in past years. The results will help you decide how hot, cold, wet, or windy it might be!

Date:

Astronomy

Oct. 07, 2012 Rise Set
Actual Time 5:37 AM -05 5:37 PM -05
Civil Twilight 5:16 AM -05 5:58 PM -05
Nautical Twilight 4:52 AM -05 6:22 PM -05
Astronomical Twilight 4:28 AM -05 6:47 PM -05
Moon 11:29 PM -05 (10/7) 11:27 AM -05 (10/7)
Length of Visible Light 12h 42m
Length of Day
12h 00m
Waning Gibbous, 56% of the Moon is Illuminated
Oct 7
Waning Gibbous
Oct 8
Last Quarter
Oct 15
New
Oct 21
First Quarter
Oct 29
Full

Hourly Weather History & Observations

Time (-05) Temp. Heat Index Dew Point Humidity Pressure Visibility Wind Dir Wind Speed Gust Speed Precip Events Conditions
5:00 AM - - - N/A% 29.88 in 6.2 mi Calm Calm - N/A   Scattered Clouds
5:30 AM - - - N/A% 29.92 in 6.2 mi Calm Calm - N/A   Scattered Clouds
6:00 AM 73.4 °F - 69.8 °F 88% 29.92 in 6.2 mi Calm Calm - N/A   Scattered Clouds
7:00 AM 76 °F - 69 °F 74% 29.84 in 11 mi Calm Calm - - Fog Light Fog
7:00 AM 75.2 °F - 69.8 °F 83% 29.94 in 6.2 mi Calm Calm - N/A Fog Scattered Clouds
7:25 AM - - - N/A% 29.98 in 6.2 mi Calm Calm - N/A Fog Patches of Fog
8:00 AM 75.2 °F - 71.6 °F 89% 29.98 in 5.0 mi Calm Calm - N/A Fog Patches of Fog
9:00 AM 77.0 °F - 71.6 °F 83% 30.00 in 5.0 mi Calm Calm - N/A Fog Fog
10:00 AM 80 °F - 70 °F 65% 29.86 in 5 mi Calm Calm - - Fog Light Fog
10:00 AM 80.6 °F 83.9 °F 69.8 °F 70% 29.98 in 5.0 mi Calm Calm - N/A Fog Fog
11:00 AM 82.4 °F 87.2 °F 71.6 °F 70% 29.96 in 6.2 mi Calm Calm - N/A   Scattered Clouds
12:00 PM 86.0 °F 91.8 °F 71.6 °F 62% 29.92 in 6.2 mi Calm Calm - N/A   Scattered Clouds
1:00 PM 89 °F - 72 °F 48% 29.74 in 12 mi North 4.5 mph - -   Partly Cloudy
1:00 PM 89.6 °F 96.2 °F 71.6 °F 55% 29.85 in 6.2 mi North 3.5 mph - N/A   Scattered Clouds
2:00 PM 91.4 °F 98.4 °F 71.6 °F 52% 29.81 in 6.2 mi NNE 8.1 mph - N/A   Partly Cloudy
3:00 PM 93.2 °F 98.8 °F 69.8 °F 46% - 6.2 mi ESE 9.2 mph - N/A   Partly Cloudy
4:00 PM 88 °F - 73 °F 54% 29.68 in 12 mi NW 8.9 mph - -   Scattered Clouds
4:00 PM 87.8 °F 95.6 °F 73.4 °F 62% 29.79 in 6.2 mi NW 9.2 mph - N/A   Partly Cloudy
5:00 PM 84.2 °F 89.6 °F 71.6 °F 66% 29.81 in 6.2 mi North 9.2 mph - N/A   Partly Cloudy
6:00 PM 82.4 °F 88.2 °F 73.4 °F 74% 29.85 in 6.2 mi NW 5.8 mph - N/A   Scattered Clouds
7:00 PM 81 °F - 74 °F 72% 29.77 in 9 mi NNW 4.5 mph - - Thunderstorm Thunderstorm
7:00 PM 80.6 °F 85.4 °F 73.4 °F 79% 29.88 in 6.2 mi NNW 4.6 mph - N/A Thunderstorm Thunderstorm
8:00 PM 80.6 °F 85.4 °F 73.4 °F 79% 29.92 in 6.2 mi Calm Calm - N/A Thunderstorm Thunderstorm
9:00 PM 78.8 °F - 73.4 °F 83% 29.92 in 6.2 mi Variable 2.3 mph - N/A Thunderstorm Thunderstorm
10:00 PM 78 °F - 74 °F 84% 29.83 in 9 mi 2.2 mph - - Thunderstorm Thunderstorm
10:00 PM 78.8 °F - 73.4 °F 83% 29.95 in 6.2 mi Variable 2.3 mph - N/A Thunderstorm Thunderstorm
11:00 PM 78.8 °F - 73.4 °F 83% 29.98 in 6.2 mi SW 4.6 mph - N/A   Scattered Clouds